Tracking 29782 objects as of 13-Oct-2024
HD Live streaming from Space Station
objects crossing your sky now

DELTA 2 R/B(2)

Track DELTA 2 R/B(2) now!


NORAD ID: 23018
Int'l Code: 1994-013C
Perigee: 2,934.8 km
Apogee: 37,126.4 km
Inclination: 25.7 °
Period: 711.6 minutes
Semi major axis: 26401 km
RCS: 3.4432 m2 (large)
Launch date: February 19, 1994
Source: United States (US)
Launch site: AIR FORCE EASTERN TEST RANGE (AFETR)

Note: This is a ROCKET BODY
Your satellite tracking list
Your tracking list is empty




NASA's NSSDC Master Catalog

Two Line Element Set (TLE):
1 23018U 94013C   24286.62342242 -.00000130  00000-0  00000-0 0  9993
2 23018  25.7423 346.2764 6475280  27.9415 355.3366  2.02374906226342
Source of the keplerian elements: AFSPC